[[[{"header":{"parameterUnit":"kt","parameterCategory":2,"dx":1,"dy":1,"la1":30.253999710083008,"la2":30.299108505249023,"lo1":-89.0895004272461,"lo2":-89.04439544677734,"nx":28,"ny":28,"refTime":"2022-10-14T21:00:00:Z","depth":0,"parameterNumber":1,"parameterNumberName":"U-component_of_WINDS"},"data":[-4.0028,-4.0134,-4.0147,-4.0274,-4.0308,-4.0397,-4.0433,-4.0481,-4.0522,-4.063,-4.0694,-4.0718,-4.0764,-4.0844,-4.0914,-4.0923,-4.0952,-4.098,-4.0986,-4.0846,-4.0828,-4.081,-4.0785,-4.0987,-4.0987,-4.1128,-4.1129,-4.113,-3.9927,-3.996,-4.0031,-4.0109,-4.017,-4.015,-4.021,-4.0262,-4.0343,-4.0394,-4.0458,-4.0554,-4.0631,-4.0668,-4.0745,-4.0794,-4.0789,-4.0814,-4.081,-4.0818,-4.0669,-4.0643,-4.0817,-4.0817,-4.0817,-4.0817,-4.0817,-4.0817,-3.9745,-3.9808,-3.9862,-3.9939,-3.9981,-4.0033,-4.0095,-4.0122,-4.0192,-4.0273,-4.0274,-4.0365,-4.0419,-4.0517,-4.0552,-4.0624,-4.0598,-4.0629,-4.0637,-4.0644,-4.0651,-4.0445,-4.0637,-4.0637,-4.0636,-4.0636,-4.0636,0,-3.9615,-3.9621,-3.969,-3.9763,-3.9819,-3.9877,-3.9931,-3.997,-3.9987,-4.0044,-4.0127,-4.0176,-4.0275,-4.0354,-4.0428,-4.0459,-4.0443,-4.0443,-4.0464,-4.0464,-4.0456,-4.0461,-4.0218,-4.0437,-4.0435,-4.0434,-4.0433,-4.0433,-3.9432,-3.9504,-3.9566,-3.9612,-3.9645,-3.972,-3.9767,-3.9776,-3.9826,-3.9894,-3.9949,-4.0029,-4.0093,-4.0223,-4.0253,-4.0327,-4.032,-4.0402,-4.0331,-4.0328,-4.0321,-4.0316,-4.0323,-4.0415,-4.0417,-4.0419,-4.0421,0,-3.9328,-3.9347,-3.9462,-3.9516,-3.9532,-3.9607,-3.9653,-3.9716,-3.9735,-3.9825,-3.9846,-3.9876,-3.9957,-3.9974,-4.007,-4.0076,-4.02,-4.0192,-4.0182,-4.0181,-4.0256,-4.0248,-4.0497,-4.053,-4.0322,-4.0324,-4.0325,0,-3.9178,-3.9272,-3.9296,-3.9361,-3.9466,-3.9472,-3.9576,-3.9602,-3.9648,-3.9718,-3.9703,-3.977,-3.9781,-3.985,-3.986,-3.9964,-3.9982,-3.9993,-3.9994,-3.9994,-3.9992,-4.0019,-4.0009,-3.9994,-3.9993,-3.9992,-3.9991,0,-3.9012,-3.9134,-3.9241,-3.9272,-3.9338,-3.9389,-3.9419,-3.9469,-3.9515,-3.9577,-3.9607,-3.9679,-3.9718,-3.9775,-3.9786,-3.9737,-3.9914,-3.9849,-3.9925,-3.9925,-3.9962,-3.9959,-4.0176,-3.9989,-3.9989,-3.9988,-3.9988,0,-3.8894,-3.8956,-3.9108,-3.9163,-3.9194,-3.9265,-3.9336,-3.94,-3.9455,-3.9465,-3.9514,-3.9505,-3.9597,-3.9532,-3.9659,-3.9592,-3.9632,-3.9651,-3.9657,-3.9665,-3.959,-3.9709,-3.9915,-3.9936,-3.9674,-3.9672,-3.9669,0,-3.8698,-3.8856,-3.8862,-3.9006,-3.9081,-3.9058,-3.9137,-3.9185,-3.9205,-3.9272,-3.9294,-3.937,-3.9324,-3.935,-3.9411,-3.9437,-3.9524,-3.9426,-3.9521,-3.9525,-3.9507,-3.9696,-3.9722,-3.9868,-3.9636,-3.9639,-3.9642,0,-3.8548,-3.8626,-3.8652,-3.8687,-3.8751,-3.8814,-3.8904,-3.898,-3.9024,-3.908,-3.9156,-3.9263,-3.9233,-3.9275,-3.9275,-3.9338,-3.9465,-3.9297,-3.9298,-3.9326,-3.962,-3.9645,-3.9669,-3.9451,-3.9455,-3.9459,-3.9616,0,-3.8364,-3.8445,-3.8514,-3.8591,-3.8642,-3.8733,-3.875,-3.8801,-3.8796,-3.8814,-3.8925,-3.8969,-3.9046,-3.9078,-3.9073,-3.9211,-3.919,-3.9157,-3.9093,-3.9217,-3.9269,-3.9291,-3.9014,-3.9012,-3.9011,-3.9009,0,0,-3.8171,-3.8287,-3.829,-3.8377,-3.8419,-3.8393,-3.8489,-3.8528,-3.8606,-3.8636,-3.8601,-3.8758,-3.8794,-3.8928,-3.8968,-3.9,-3.9026,-3.8981,-3.9158,-3.9175,-3.919,-3.9245,-3.9267,-3.9007,-3.9006,-3.9006,-3.9005,0,-3.8107,-3.8144,-3.8239,-3.8279,-3.8338,-3.8352,-3.8375,-3.8429,-3.8444,-3.8553,-3.8529,-3.8598,-3.8723,-3.8765,-3.8802,-3.8966,-3.8943,-3.8988,-3.9071,-3.9142,-3.9161,-3.9177,-3.9235,-3.9256,-3.9002,-3.9002,-3.9002,0,-3.7961,-3.8001,-3.8048,-3.8143,-3.8181,-3.8259,-3.8196,-3.828,-3.8338,-3.8304,-3.8412,-3.8438,-3.8495,-3.8619,-3.8675,-3.8644,-3.8867,-3.88,-3.881,-3.8816,-3.8886,-3.8908,-3.8928,-3.8667,-3.8665,-3.8664,0,0,-3.7903,-3.7978,-3.8022,-3.813,-3.8156,-3.8178,-3.8221,-3.8219,-3.827,-3.8291,-3.8323,-3.8374,-3.8447,-3.8494,-3.8563,-3.8697,-3.8709,-3.8758,-3.8774,-3.8786,-3.8799,-3.8873,-3.8895,-3.866,-3.8659,-3.8659,0,0,-3.7875,-3.793,-3.7915,-3.8042,-3.8092,-3.8142,-3.8208,-3.8191,-3.8254,-3.8245,-3.8246,-3.8259,-3.8375,-3.8402,-3.8338,-3.854,-3.8477,-3.8492,-3.8518,-3.8539,-3.8554,-3.8545,-3.8278,0,0,0,0,0,-3.7816,-3.7923,-3.7909,-3.7932,-3.8052,-3.815,-3.8166,-3.8169,-3.8123,-3.8176,-3.82,-3.8173,-3.8367,-3.8311,-3.8334,-3.8405,-3.8599,-3.861,-3.862,-3.8686,-3.8707,-3.8724,0,0,0,0,0,0,-3.7826,-3.7854,-3.7906,-3.796,-3.7987,-3.8146,-3.8071,-3.8074,-3.8118,-3.8111,-3.8169,-3.8175,-3.8179,-3.8299,-3.832,-3.8387,-3.8271,-3.8604,-3.8613,-3.8621,-3.8693,-3.871,-3.8725,0,0,0,0,0,-3.7833,-3.7856,-3.8048,-3.7959,-3.7982,-3.8012,-3.8066,-3.8069,-3.8103,-3.814,-3.8145,-3.8101,-3.8181,-3.8199,-3.8311,-3.8377,-3.8256,-3.8264,-3.861,-3.8617,-3.8623,-3.8701,0,0,0,0,0,0,-3.7838,-3.7859,-3.8052,-3.806,-3.7918,-3.8003,-3.8016,-3.8065,-3.8129,-3.8135,-3.8071,-3.8065,-3.8183,-3.8197,-3.8211,-3.8374,-3.8244,-3.8252,-3.8257,-3.8615,-3.8621,-3.8626,0,0,0,0,0,0,-3.7847,-3.7866,-3.8056,-3.8005,-3.8006,-3.7995,-3.8007,-3.8103,-3.813,-3.8057,-3.8053,-3.8068,-3.8162,-3.8196,-3.8207,-3.8356,-3.8235,-3.8243,-3.8248,-3.8251,-3.862,-3.8624,0,0,0,0,0,0,-3.7855,-3.7871,-3.8003,-3.8004,-3.8005,-3.8087,-3.8079,-3.8202,-3.8086,-3.8054,-3.8075,-3.8071,-3.8162,-3.8173,-3.8204,-3.8349,-3.8355,-3.8235,-3.824,-3.8244,-3.8247,0,0,0,0,0,0,0,-3.7861,-3.7752,-3.8009,-3.8003,-3.8004,-3.8127,-3.8129,-3.8131,-3.8085,-3.8081,-3.8077,-3.8073,-3.8191,-3.82,-3.8208,-3.8344,0,0,-3.8234,-3.8238,0,0,0,0,0,0,0,0,-3.7745,-3.775,-3.801,-3.8011,-3.8013,-3.8127,-3.8129,-3.813,-3.8084,-3.8081,-3.8077,-3.8074,-3.8193,-3.82,-3.8207,0,0,0,0,0,0,0,0,0,0,0,0,0,0,0,-3.801,-3.8011,0,-3.8127,-3.8129,-3.813,-3.8084,-3.8081,-3.8078,-3.8076,-3.8195,-3.8201,-3.8207,0,0,0,0,0,0,0,0,0,0,0,0,0,0,0,0,0,0,0,0,0,0,0,0,0,0,0,0,0,0,0,0,0,0,0,0,0,0,0,0,0,0,0,0,0,0,0,0,0,0,0,0,0,0,0,0,0,0,0,0,0,0,0,0,0,0,0,0,0]}],[{"header":{"parameterUnit":"kt","parameterCategory":2,"dx":1,"dy":1,"la1":30.253999710083008,"la2":30.299108505249023,"lo1":-89.0895004272461,"lo2":-89.04439544677734,"nx":28,"ny":28,"refTime":"2022-10-14T21:00:00:Z","depth":0,"parameterNumber":2,"parameterNumberName":"V-component_of_WINDS"},"data":[3.8108,3.8187,3.8167,3.8248,3.8242,3.8293,3.8304,3.8317,3.8321,3.8379,3.8408,3.8394,3.8388,3.8418,3.8448,3.844,3.8453,3.8498,3.8481,3.8301,3.8274,3.8249,3.8227,3.8503,3.8503,3.8668,3.867,3.8671,3.7981,3.7977,3.8014,3.8034,3.8066,3.801,3.8021,3.805,3.8097,3.8103,3.813,3.8179,3.8214,3.8192,3.8222,3.8258,3.8231,3.8267,3.8261,3.8261,3.8069,3.8046,3.8288,3.8288,3.8288,3.8288,3.8288,3.8288,3.7744,3.7793,3.7792,3.7831,3.7835,3.7849,3.7891,3.7872,3.7906,3.7935,3.7901,3.7953,3.7953,3.7976,3.7978,3.8017,3.7972,3.8003,3.801,3.8018,3.8029,3.779,3.8022,3.8021,3.802,3.802,3.8019,0,3.7562,3.7541,3.7573,3.76,3.7627,3.7645,3.7657,3.7683,3.7626,3.7657,3.7699,3.7719,3.776,3.7796,3.7818,3.7812,3.7752,3.7745,3.7765,3.778,3.7792,3.7783,3.7468,3.7737,3.7734,3.7732,3.7731,3.773,3.7318,3.7378,3.7365,3.7391,3.7391,3.7434,3.7454,3.7399,3.7423,3.743,3.7475,3.7511,3.7536,3.7607,3.758,3.761,3.758,3.7685,3.7583,3.7597,3.7577,3.7572,3.7577,3.7703,3.7707,3.7709,3.7712,0,3.7182,3.7143,3.7228,3.7207,3.7204,3.727,3.7251,3.7297,3.7272,3.7331,3.7342,3.73,3.7342,3.7298,3.7336,3.7311,3.7417,3.739,3.7417,3.7407,3.7494,3.7485,3.7789,3.7825,3.7543,3.7546,3.7548,0,3.6956,3.7036,3.6972,3.7023,3.7111,3.7052,3.714,3.7126,3.7123,3.7169,3.7095,3.714,3.7075,3.7114,3.7077,3.7156,3.7164,3.7148,3.7136,3.7152,3.7154,3.7159,3.7144,3.7112,3.7111,3.7109,3.7108,0,3.6743,3.6803,3.6887,3.6893,3.6878,3.6918,3.6914,3.6909,3.6929,3.6947,3.6959,3.6986,3.7,3.7022,3.6973,3.6906,3.7069,3.6966,3.7052,3.7054,3.7086,3.7084,3.7369,3.7106,3.7106,3.7105,3.7105,0,3.6551,3.6572,3.6699,3.6683,3.6701,3.6756,3.6777,3.6813,3.6814,3.6793,3.6808,3.675,3.6817,3.6718,3.6808,3.6734,3.6752,3.6743,3.6748,3.6746,3.6636,3.6797,3.7077,3.7102,3.6752,3.6749,3.6747,0,3.6318,3.6435,3.6382,3.6505,3.6551,3.6462,3.6523,3.6525,3.6502,3.6538,3.6513,3.6554,3.6471,3.6477,3.6529,3.6503,3.66,3.6489,3.6539,3.6541,3.6538,3.6795,3.6845,3.7022,3.6709,3.6713,3.6716,0,3.613,3.6108,3.6133,3.6137,3.6129,3.6167,3.6238,3.6264,3.6291,3.6302,3.6356,3.6415,3.6353,3.6364,3.6319,3.6375,3.6533,3.63,3.6299,3.6341,3.6686,3.6734,3.6764,3.6491,3.6495,3.6499,3.6685,0,3.5844,3.5896,3.5964,3.5974,3.5997,3.6071,3.6019,3.605,3.6004,3.5977,3.6059,3.6046,3.6073,3.6095,3.605,3.6193,3.616,3.6094,3.5989,3.6161,3.622,3.6245,3.5905,3.5901,3.5899,3.5896,0,0,3.5627,3.57,3.5638,3.5702,3.5717,3.5621,3.5703,3.5707,3.5715,3.5727,3.5669,3.5749,3.574,3.5844,3.5893,3.5905,3.5925,3.5866,3.608,3.6101,3.612,3.6185,3.6212,3.5891,3.589,3.5889,3.5888,0,3.551,3.5505,3.5588,3.5589,3.5586,3.5552,3.5573,3.5553,3.5538,3.5618,3.5535,3.5577,3.5642,3.5643,3.5652,3.5854,3.5787,3.5867,3.5991,3.6054,3.6079,3.61,3.6169,3.6195,3.5881,3.5882,3.5882,0,3.5313,3.5298,3.5332,3.5361,3.5358,3.5408,3.5287,3.5346,3.5382,3.527,3.5349,3.5335,3.5332,3.5438,3.5483,3.5431,3.5664,3.5582,3.5598,3.56,3.5658,3.5688,3.5714,3.5366,3.5364,3.5363,0,0,3.5218,3.5266,3.523,3.5331,3.5336,3.5286,3.5307,3.5262,3.5261,3.5261,3.524,3.5242,3.5278,3.5304,3.5335,3.5459,3.5452,3.552,3.5545,3.5565,3.5578,3.5641,3.5671,3.5357,3.5357,3.5357,0,0,3.5172,3.5134,3.5086,3.5198,3.5201,3.517,3.5234,3.5175,3.5197,3.5182,3.5108,3.5105,3.5202,3.5191,3.5117,3.5296,3.5195,3.5211,3.5299,3.5329,3.5353,3.5351,3.4988,0,0,0,0,0,3.5023,3.5138,3.5096,3.5107,3.5141,3.5195,3.5199,3.5139,3.5069,3.5121,3.5093,3.502,3.5136,3.5069,3.508,3.5161,3.528,3.5294,3.5306,3.5448,3.548,3.5507,0,0,0,0,0,0,3.5027,3.504,3.5093,3.5069,3.5075,3.519,3.5057,3.5044,3.5061,3.5046,3.5028,3.502,3.497,3.5059,3.507,3.5148,3.4984,3.5285,3.5297,3.5307,3.5459,3.5485,3.5508,0,0,0,0,0,3.5029,3.504,3.511,3.5066,3.5072,3.5021,3.5052,3.504,3.5052,3.5009,3.4998,3.5006,3.4974,3.4979,3.5065,3.5145,3.4976,3.4981,3.5293,3.5302,3.531,3.5472,0,0,0,0,0,0,3.5031,3.5029,3.5109,3.5109,3.5017,3.5014,3.5011,3.5037,3.5013,3.5003,3.4983,3.4971,3.4978,3.4981,3.4986,3.5147,3.497,3.4974,3.4977,3.53,3.5307,3.5313,0,0,0,0,0,0,3.5023,3.5029,3.5109,3.5051,3.5043,3.5007,3.5005,3.5069,3.5014,3.4987,3.4977,3.4978,3.4971,3.4984,3.4987,3.5089,3.4964,3.4969,3.4972,3.4974,3.5306,3.5311,0,0,0,0,0,0,3.5024,3.503,3.505,3.5045,3.5038,3.5029,3.5062,3.51,3.4965,3.499,3.4951,3.4944,3.4975,3.4977,3.4988,3.509,3.5089,3.4965,3.4967,3.497,3.4971,0,0,0,0,0,0,0,3.5026,3.5002,3.5112,3.504,3.5033,3.5106,3.5106,3.5105,3.4963,3.4958,3.4952,3.4947,3.494,3.4945,3.4949,3.509,0,0,3.4964,3.4966,0,0,0,0,0,0,0,0,3.4999,3.5001,3.5112,3.5112,3.5112,3.5106,3.5106,3.5106,3.4962,3.4958,3.4953,3.4949,3.4941,3.4945,3.4949,0,0,0,0,0,0,0,0,0,0,0,0,0,0,0,3.5112,3.5112,0,3.5106,3.5106,3.5106,3.4962,3.4958,3.4954,3.4951,3.4942,3.4945,3.4949,0,0,0,0,0,0,0,0,0,0,0,0,0,0,0,0,0,0,0,0,0,0,0,0,0,0,0,0,0,0,0,0,0,0,0,0,0,0,0,0,0,0,0,0,0,0,0,0,0,0,0,0,0,0,0,0,0,0,0,0,0,0,0,0,0,0,0,0,0]}]]]